EW7119 Weather Reports


time (UTC)temp
C
wind
direction
speed
KPH
gust
KPH
rain 1hr
cm
rain 24hr
cm
rain mn
cm
humidity
%
barometer
mb
20260903121551 11 260 0.0 0.0 0.00 0.00 0.00 55 1003.0
20260903120009 11 146 0.0 0.0 0.00 0.00 0.00 55 1003.0
20260903114513 11 146 0.0 0.0 0.00 0.00 0.00 56 1003.0
20260903113040 10 214 0.0 0.0 0.00 0.00 0.00 55 1003.0
20260903111554 11 214 0.0 0.0 0.00 0.00 0.00 53 1003.0
20260903110009 11 254 0.0 0.0 0.00 0.00 0.00 50 1003.0
20260903104521 12 254 0.0 0.0 0.00 0.00 0.00 49 1002.9
20260903103057 12 207 0.0 11.3 0.00 0.00 0.00 50 1003.0
20260903101612 10 161 0.0 0.0 0.00 0.00 0.00 53 1002.7
20260903100036 10 155 0.0 0.0 0.00 0.00 0.00 57 1002.9
20260903094544 10 156 0.0 0.0 0.00 0.00 0.00 60 1002.8
20260903093040 10 155 0.0 0.0 0.00 0.00 0.00 59 1002.9
20260903091542 10 156 0.0 0.0 0.00 0.00 0.00 58 1002.8
20260903090056 11 155 0.0 0.0 0.00 0.00 0.00 58 1003.0
20260903084600 11 155 0.0 0.0 0.00 0.00 0.00 56 1003.1
20260903083111 11 155 0.0 0.0 0.00 0.00 0.00 55 1003.0
20260903081611 12 155 0.0 0.0 0.00 0.00 0.00 54 1003.2
20260903080007 12 111 0.0 0.0 0.00 0.00 0.00 53 1003.3
20260903074529 12 273 0.0 0.0 0.00 0.00 0.00 52 1003.5
20260903073018 13 273 0.0 0.0 0.00 0.00 0.00 49 1003.6
20260903071533 13 273 0.0 0.0 0.00 0.00 0.00 48 1003.6
20260903070002 13 172 0.0 0.0 0.00 0.00 0.00 47 1003.6
20260903064514 13 177 0.0 0.0 0.00 0.00 0.00 46 1003.7
20260903063103 13 254 0.0 0.0 0.00 0.00 0.00 47 1003.8
20260903061522 14 227 0.0 0.0 0.00 0.00 0.00 47 1003.8
20260903060042 14 211 0.0 0.0 0.00 0.00 0.00 47 1003.6
20260903054545 14 133 0.0 0.0 0.00 0.00 0.00 48 1003.6
20260903053049 13 133 0.0 0.0 0.00 0.00 0.00 48 1003.6
20260903051559 13 133 0.0 0.0 0.00 0.00 0.00 50 1003.6
20260903050115 13 133 0.0 0.0 0.00 0.00 0.00 49 1003.5
20260903044557 14 206 0.0 0.0 0.00 0.00 0.00 47 1003.6
20260903043101 14 206 0.0 0.0 0.00 0.00 0.00 45 1003.8
20260903041556 15 206 0.0 0.0 0.00 0.00 0.00 43 1003.6
20260903040104 15 206 0.0 0.0 0.00 0.00 0.00 40 1003.5
20260903034613 16 171 0.0 0.0 0.00 0.00 0.00 37 1003.7
20260903033009 16 154 0.0 0.0 0.00 0.00 0.00 36 1003.2
20260903031522 16 135 0.0 12.9 0.00 0.00 0.00 38 1003.1
20260903030034 16 157 0.0 1.6 0.00 0.00 0.00 37 1002.8
20260903024529 17 182 0.0 0.0 0.00 0.00 0.00 36 1002.8
20260903023021 17 146 0.0 0.0 0.00 0.00 0.00 35 1002.5
20260903021543 17 146 0.0 0.0 0.00 0.00 0.00 35 1002.4
20260903020053 17 150 0.0 0.0 0.00 0.00 0.00 35 1002.2
20260903014555 17 126 0.0 0.0 0.00 0.00 0.00 35 1002.2
20260903013107 18 127 0.0 1.6 0.00 0.00 0.00 33 1002.2
20260903011630 19 249 0.0 0.0 0.00 0.00 0.00 31 1002.0
20260903010009 20 249 0.0 0.0 0.00 0.00 0.00 29 1002.1
20260903004518 20 179 0.0 0.0 0.00 0.00 0.00 28 1002.1
20260903003008 21 252 0.0 3.2 0.00 0.00 0.00 27 1002.0
20260903001512 22 269 0.0 0.0 0.00 0.00 0.00 28 1001.8
20260903000018 21 275 0.0 1.6 0.00 0.00 0.00 30 1001.8
20260902234550 21 147 0.0 0.0 0.00 0.00 0.00 32 1002.0
20260902233101 20 184 0.0 0.0 0.00 0.00 0.00 31 1002.1
20260902231615 20 259 0.0 0.0 0.00 0.00 0.00 31 1002.3
20260902230135 20 292 0.0 0.0 0.00 0.00 0.00 32 1002.4
20260902224502 21 213 0.0 3.2 0.00 0.00 0.00 29 1002.4
20260902223003 21 285 0.0 0.0 0.00 0.00 0.00 34 1002.4
20260902221502 22 306 0.0 1.6 0.00 0.00 0.00 27 1002.5
20260902220134 23 258 0.0 17.7 0.00 0.00 0.00 27 1002.5
20260902214502 22 234 0.0 1.6 0.00 0.00 0.00 26 1002.6
20260902213133 22 142 4.8 19.3 0.00 0.00 0.00 25 1002.7
20260902211501 21 248 0.0 0.0 0.00 0.00 0.00 25 1002.9
20260902210032 21 140 0.0 0.0 0.00 0.00 0.00 29 1003.3
20260902204522 21 271 0.0 0.0 0.00 0.00 0.00 29 1003.7
20260902203044 21 263 0.0 0.0 0.00 0.00 0.00 28 1003.8
20260902201550 21 206 0.0 0.0 0.00 0.00 0.00 28 1004.1
20260902200054 22 274 0.0 8.0 0.00 0.00 0.00 29 1004.2
20260902194604 22 150 0.0 0.0 0.00 0.00 0.00 33 1004.2
20260902193130 22 126 0.0 1.6 0.00 0.00 0.00 31 1004.5
20260902191511 22 175 0.0 0.0 0.00 0.00 0.00 31 1004.6
20260902190032 21 286 0.0 0.0 0.00 0.00 0.00 30 1005.1
20260902184553 21 202 0.0 0.0 0.00 0.00 0.00 34 1005.3
20260902183130 21 222 0.0 1.6 0.00 0.00 0.00 32 1005.5
20260902181512 20 170 0.0 1.6 0.00 0.00 0.00 34 1005.7
20260902180153 20 255 0.0 0.0 0.00 0.00 0.00 33 1005.9
20260902174509 20 274 0.0 20.9 0.00 0.00 0.00 37 1005.9
20260902173034 19 269 0.0 3.2 0.00 0.00 0.00 41 1006.0
20260902171540 18 42 0.0 0.0 0.00 0.00 0.00 40 1006.1
20260902170041 17 328 0.0 0.0 0.00 0.00 0.00 43 1006.3
20260902164551 17 322 0.0 0.0 0.00 0.00 0.00 43 1006.3
20260902163105 17 308 0.0 0.0 0.00 0.00 0.00 42 1006.4
20260902161608 16 44 0.0 0.0 0.00 0.00 0.00 46 1006.8
20260902160026 16 315 0.0 0.0 0.00 0.00 0.00 43 1006.9
20260902154530 16 319 0.0 0.0 0.00 0.00 0.00 47 1007.0
20260902153059 16 35 0.0 0.0 0.00 0.00 0.00 44 1007.1
20260902151607 15 269 0.0 0.0 0.00 0.00 0.00 47 1007.3
20260902150007 15 288 0.0 0.0 0.00 0.00 0.00 48 1007.4
20260902144529 14 327 0.0 0.0 0.00 0.00 0.00 48 1007.4
20260902143041 13 355 0.0 0.0 0.00 0.00 0.00 48 1007.4
20260902141541 12 15 0.0 0.0 0.00 0.00 0.00 52 1007.2
20260902140055 12 18 0.0 0.0 0.00 0.00 0.00 55 1007.3
20260902134557 11 33 0.0 0.0 0.00 0.00 0.00 59 1007.1
20260902133059 11 34 0.0 0.0 0.00 0.00 0.00 56 1006.8
20260902131553 10 30 0.0 0.0 0.00 0.00 0.00 58 1006.8
20260902130057 10 30 0.0 0.0 0.00 0.00 0.00 59 1006.6
20260902124600 10 79 0.0 0.0 0.00 0.00 0.00 60 1006.6
20260902123112 10 88 0.0 0.0 0.00 0.00 0.00 60 1006.4